Regional Weather Roundup
Issued by NWS

Home | Current Version | Previous Version | Graphics & Text | Print | Product List | Glossary On
Versions: 1 2 3 4 5 6 7 8 9 10 11 12 13 14 15 16 17 18 19 20 21 22 23 24 25 26 27 28 29 30 31 32 33 34 35 36 37 38 39 40 41 42 43 44 45 46 47 48 49 50
841
ASUS44 KLIX 011110
RWRLA
LOUISIANA WEATHER ROUNDUP
NATIONAL WEATHER SERVICE NEW ORLEANS LA
600 AM CDT WED OCT 01 2014

NOTE: "FAIR" INDICATES FEW OR NO CLOUDS BELOW 12,000 FEET WITH NO
      SIGNIFICANT WEATHER AND/OR OBSTRUCTIONS TO VISIBILITY.
      SKY/WX - SKY CONDITION AND SIGNIFICANT WEATHER.
      TMP - AIR TEMPERATURE.    DP   - DEWPOINT TEMPERATURE.
      RH  - RELATIVE HUMIDITY.  PRES - PRESSURE.
      HX  - HEAT INDEX.         WCI  - WIND CHILL INDEX.

*  THESE STATIONS ARE NOT NWS OR FAA STATIONS AND ARE NOT UNDER
   NWS QUALITY CONTROL.

LAZ040-048-061>063-065-066-069-011200-
SOUTHEAST LOUISIANA

CITY           SKY/WX    TMP DP  RH WIND       PRES   REMARKS
N.O. AUDUBON     N/A     76  73  92 MISG        N/A
N.O. INTL ARPT PTCLDY    76  71  85 E5        29.88S
N.O. LAKEFRONT CLEAR     75  72  90 E5        29.89R
N.O. DOWNTOWN* FAIR      77  70  78 SE6       29.89S
SLIDELL        CLEAR     67  65  93 CALM      29.90R
BATON ROUGE    PTCLDY    71  70  96 NE5       29.88S
BOOTHVILLE     CLEAR     77  74  90 E3        29.89R
BELLE CHASSE   PTCLDY    72  68  87 NE3       29.88S
BOGALUSA*      FOG       68  65  91 CALM      29.92S VSB 1/2
GALLIANO*      NOT AVBL
NEW ROADS*     PTSUNNY   73  72  98 CALM      29.88S FOG
GONZALES*      FOG       71  71 100 CALM      29.88R VSB 1/2
HAMMOND*       CLEAR     72  68  88 E3        29.91S
HOUMA*         PTCLDY   N/A N/A N/A CALM      29.87S
PORT FOURCHON* MOSUNNY   81  75  83 SE12      29.90S

$$

LAZ041-044-053-054-011200-
SOUTHWEST LOUISIANA

CITY           SKY/WX    TMP DP  RH WIND       PRES   REMARKS
LAKE CHARLES   TSTM      77  75  93 S10       29.83S
LAFAYETTE      CLOUDY    75  75 100 E3        29.87R FOG
PATTERSON      CLEAR     73  73 100 E3          N/A
SALT POINT       N/A     78  76  93 CALM      29.85S
NEW IBERIA     PTCLDY    75  74  96 E5        29.86S
CHENAULT AIRPK NOT AVBL

$$

LAZ027-028-011200-
CENTRAL LOUISIANA

CITY           SKY/WX    TMP DP  RH WIND       PRES   REMARKS
FORT POLK      CLOUDY    75  73  96 SE5       29.85S
ALEXANDRIA INT MOCLDY    73  71  93 SE3       29.85S FOG
ALEXANDRIA     MOCLDY    71  69  93 CALM      29.87S FOG

$$

LAZ001-002-011200-
NORTHWEST LOUISIANA

CITY           SKY/WX    TMP DP  RH WIND       PRES   REMARKS
SHREVEPORT     PTCLDY    73  71  93 S7        29.84S
BARKSDALE AFB  PTCLDY    71  70  94 SE5       29.85S
DTN SHREVEPORT PTCLDY    74  69  85 SE3       29.84S

$$

LAZ014-016-011200-
NORTHEAST LOUISIANA

CITY           SKY/WX    TMP DP  RH WIND       PRES   REMARKS
MONROE         PTCLDY    73  70  90 S5        29.88S
TALLULAH       MOCLDY    73  69  87 SE6       29.89S

$$




USA.gov is the U.S. government's official web portal to all federal, state and local government web resources and services.